Location: Feigenhofen
(48.4939°N, 10.7793°E)
Time: 15:26:27
(UTC+00:00)

Cosmos 1025 Rocket - Pass Details

Date: 26 May 2022
Orbit: 593 x 618 km, 82.5° (Epoch: 28 June)

Event Time Altitude Azimuth Distance (km) Brightness Sun altitude
Exits shadow 00:47:07 32° 174° (S) 1,054 3.8 -17.4°
Maximum altitude 00:49:04 72° 97° (E) 639 3.1 -17.2°
Drops below altitude 10° 00:53:23 10° 13° (NNE) 1,955 6.9 -16.9°
Sets 00:55:36 0° 12° (NNE) 2,859 8.1 -16.8°
